Time,TemperatureF,DewpointF,PressureIn,WindDirection,WindDirectionDegrees,WindSpeedMPH,WindSpeedGustMPH,Humidity,HourlyPrecipIn,Conditions,Clouds,dailyrainin,SoftwareType,DateUTC
2013-10-12 00:01:00,49.2,38.7,30.15,NNW,337,0.0,5.0,67,0.00,,,0.00,Wunderground v.1.15,2013-10-12 04:01:00,
2013-10-12 00:02:00,49.2,38.7,30.15,NNW,338,0.0,5.0,67,0.00,,,0.00,Wunderground v.1.15,2013-10-12 04:02:00,
2013-10-12 00:04:00,49.1,38.6,30.15,NNW,338,0.0,5.0,67,0.00,,,0.00,Wunderground v.1.15,2013-10-12 04:04:00,
2013-10-12 00:06:00,49.1,38.6,30.15,NNW,338,0.0,5.0,67,0.00,,,0.00,Wunderground v.1.15,2013-10-12 04:06:00,
2013-10-12 00:07:00,49.1,38.6,30.15,NNW,338,0.0,5.0,67,0.00,,,0.00,Wunderground v.1.15,2013-10-12 04:07:00,
2013-10-12 00:09:00,49.0,38.9,30.15,NNW,338,0.0,5.0,68,0.00,,,0.00,Wunderground v.1.15,2013-10-12 04:09:00,
2013-10-12 00:14:00,48.5,38.4,30.15,NNW,338,0.0,5.0,68,0.00,,,0.00,Wunderground v.1.15,2013-10-12 04:14:00,
2013-10-12 00:19:00,48.1,38.8,30.15,NNW,338,0.0,5.0,70,0.00,,,0.00,Wunderground v.1.15,2013-10-12 04:19:00,
2013-10-12 00:24:00,47.6,39.0,30.15,North,6,0.0,5.0,72,0.00,,,0.00,Wunderground v.1.15,2013-10-12 04:24:00,
2013-10-12 00:29:00,46.9,39.0,30.15,North,6,1.0,5.0,74,0.00,,,0.00,Wunderground v.1.15,2013-10-12 04:29:00,
2013-10-12 00:34:00,46.7,39.2,30.15,NNW,328,1.0,5.0,75,0.00,,,0.00,Wunderground v.1.15,2013-10-12 04:34:00,
2013-10-12 00:39:00,46.6,39.4,30.15,NW,326,1.0,5.0,76,0.00,,,0.00,Wunderground v.1.15,2013-10-12 04:39:00,
2013-10-12 00:45:00,46.2,39.4,30.14,NW,325,1.0,5.0,77,0.00,,,0.00,Wunderground v.1.15,2013-10-12 04:45:00,
2013-10-12 00:50:00,46.1,39.3,30.15,NW,325,1.0,5.0,77,0.00,,,0.00,Wunderground v.1.15,2013-10-12 04:50:00,
2013-10-12 00:55:00,46.2,39.4,30.15,NW,323,0.0,5.0,77,0.00,,,0.00,Wunderground v.1.15,2013-10-12 04:55:00,
2013-10-12 01:00:00,46.1,39.3,30.15,WNW,283,0.0,5.0,77,0.00,,,0.00,Wunderground v.1.15,2013-10-12 05:00:00,
2013-10-12 01:05:00,46.4,39.6,30.15,WNW,284,0.0,5.0,77,0.00,,,0.00,Wunderground v.1.15,2013-10-12 05:05:00,
2013-10-12 01:11:00,46.6,39.8,30.15,WNW,284,0.0,5.0,77,0.00,,,0.00,Wunderground v.1.15,2013-10-12 05:11:00,
2013-10-12 01:16:00,46.8,40.0,30.15,WNW,284,0.0,5.0,77,0.00,,,0.00,Wunderground v.1.15,2013-10-12 05:16:00,
2013-10-12 01:21:00,46.8,40.0,30.15,WNW,284,0.0,5.0,77,0.00,,,0.00,Wunderground v.1.15,2013-10-12 05:21:00,
2013-10-12 01:26:00,46.3,39.5,30.15,WNW,284,0.0,5.0,77,0.00,,,0.00,Wunderground v.1.15,2013-10-12 05:26:00,
2013-10-12 01:31:00,45.8,39.7,30.15,WNW,284,0.0,5.0,79,0.00,,,0.00,Wunderground v.1.15,2013-10-12 05:31:00,
2013-10-12 01:37:00,45.6,39.8,30.15,WNW,284,0.0,5.0,80,0.00,,,0.00,Wunderground v.1.15,2013-10-12 05:37:00,
2013-10-12 01:42:00,46.0,39.9,30.15,WNW,284,0.0,5.0,79,0.00,,,0.00,Wunderground v.1.15,2013-10-12 05:42:00,
2013-10-12 01:47:00,45.8,39.7,30.15,WNW,284,0.0,5.0,79,0.00,,,0.00,Wunderground v.1.15,2013-10-12 05:47:00,
2013-10-12 01:52:00,45.9,40.1,30.15,WNW,284,0.0,5.0,80,0.00,,,0.00,Wunderground v.1.15,2013-10-12 05:52:00,
2013-10-12 01:57:00,46.4,40.2,30.15,WNW,291,0.0,5.0,79,0.00,,,0.00,Wunderground v.1.15,2013-10-12 05:57:00,
2013-10-12 02:03:00,46.7,40.5,30.15,WNW,291,0.0,5.0,79,0.00,,,0.00,Wunderground v.1.15,2013-10-12 06:03:00,
2013-10-12 02:08:00,46.3,40.1,30.15,WNW,291,0.0,5.0,79,0.00,,,0.00,Wunderground v.1.15,2013-10-12 06:08:00,
2013-10-12 02:13:00,46.0,39.9,30.15,WNW,291,0.0,5.0,79,0.00,,,0.00,Wunderground v.1.15,2013-10-12 06:13:00,
2013-10-12 02:18:00,45.4,39.6,30.15,WNW,291,0.0,5.0,80,0.00,,,0.00,Wunderground v.1.15,2013-10-12 06:18:00,
2013-10-12 02:23:00,44.8,39.6,30.15,WNW,290,0.0,5.0,82,0.00,,,0.00,Wunderground v.1.15,2013-10-12 06:23:00,
2013-10-12 02:29:00,44.3,39.5,30.15,WNW,291,0.0,5.0,83,0.00,,,0.00,Wunderground v.1.15,2013-10-12 06:29:00,
2013-10-12 02:34:00,44.8,40.0,30.15,NNE,33,0.0,5.0,83,0.00,,,0.00,Wunderground v.1.15,2013-10-12 06:34:00,
2013-10-12 02:39:00,46.6,40.4,30.15,NE,51,1.0,5.0,79,0.00,,,0.00,Wunderground v.1.15,2013-10-12 06:39:00,
2013-10-12 02:44:00,46.8,40.3,30.15,NE,51,1.0,5.0,78,0.00,,,0.00,Wunderground v.1.15,2013-10-12 06:44:00,
2013-10-12 02:49:00,46.5,40.3,30.16,NE,51,0.0,5.0,79,0.00,,,0.00,Wunderground v.1.15,2013-10-12 06:49:00,
2013-10-12 02:55:00,45.7,40.2,30.15,NE,51,0.0,5.0,81,0.00,,,0.00,Wunderground v.1.15,2013-10-12 06:55:00,
2013-10-12 03:00:00,45.7,40.2,30.16,NE,55,0.0,5.0,81,0.00,,,0.00,Wunderground v.1.15,2013-10-12 07:00:00,
2013-10-12 03:05:00,46.0,39.9,30.16,ENE,65,0.0,5.0,79,0.00,,,0.00,Wunderground v.1.15,2013-10-12 07:05:00,
2013-10-12 03:10:00,46.7,40.2,30.16,East,79,0.0,5.0,78,0.00,,,0.00,Wunderground v.1.15,2013-10-12 07:10:00,
2013-10-12 03:15:00,48.5,40.9,30.16,ENE,72,1.0,5.0,75,0.00,,,0.00,Wunderground v.1.15,2013-10-12 07:15:00,
2013-10-12 03:21:00,48.6,40.7,30.16,ENE,70,2.0,5.0,74,0.00,,,0.00,Wunderground v.1.15,2013-10-12 07:21:00,
2013-10-12 03:26:00,47.9,40.4,30.16,ENE,69,1.0,5.0,75,0.00,,,0.00,Wunderground v.1.15,2013-10-12 07:26:00,
2013-10-12 03:31:00,47.0,40.2,30.16,ENE,70,1.0,5.0,77,0.00,,,0.00,Wunderground v.1.15,2013-10-12 07:31:00,
2013-10-12 03:36:00,46.5,40.3,30.16,ENE,69,1.0,5.0,79,0.00,,,0.00,Wunderground v.1.15,2013-10-12 07:36:00,
2013-10-12 03:41:00,46.5,40.7,30.17,ENE,70,1.0,5.0,80,0.00,,,0.00,Wunderground v.1.15,2013-10-12 07:41:00,
2013-10-12 03:47:00,47.1,40.9,30.17,ENE,58,1.0,5.0,79,0.00,,,0.00,Wunderground v.1.15,2013-10-12 07:47:00,
2013-10-12 03:52:00,47.0,40.8,30.17,ENE,58,1.0,5.0,79,0.00,,,0.00,Wunderground v.1.15,2013-10-12 07:52:00,
2013-10-12 03:57:00,46.7,40.9,30.17,ENE,58,1.0,5.0,80,0.00,,,0.00,Wunderground v.1.15,2013-10-12 07:57:00,
2013-10-12 04:02:00,46.9,41.1,30.17,ENE,58,1.0,5.0,80,0.00,,,0.00,Wunderground v.1.15,2013-10-12 08:02:00,
2013-10-12 04:07:00,46.7,40.5,30.17,ENE,58,1.0,5.0,79,0.00,,,0.00,Wunderground v.1.15,2013-10-12 08:07:00,
2013-10-12 04:13:00,45.5,39.7,30.17,ENE,58,0.0,5.0,80,0.00,,,0.00,Wunderground v.1.15,2013-10-12 08:13:00,
2013-10-12 04:18:00,44.8,39.6,30.17,ENE,58,0.0,5.0,82,0.00,,,0.00,Wunderground v.1.15,2013-10-12 08:18:00,
2013-10-12 04:23:00,44.6,39.4,30.18,ENE,58,0.0,5.0,82,0.00,,,0.00,Wunderground v.1.15,2013-10-12 08:23:00,
2013-10-12 04:28:00,44.5,39.7,30.18,ENE,58,0.0,5.0,83,0.00,,,0.00,Wunderground v.1.15,2013-10-12 08:28:00,
2013-10-12 04:33:00,43.9,39.4,30.17,ENE,58,0.0,5.0,84,0.00,,,0.00,Wunderground v.1.15,2013-10-12 08:33:00,
2013-10-12 04:38:00,43.6,39.4,30.18,ENE,58,0.0,5.0,85,0.00,,,0.00,Wunderground v.1.15,2013-10-12 08:38:00,
2013-10-12 04:43:00,43.4,39.5,30.18,ENE,58,0.0,5.0,86,0.00,,,0.00,Wunderground v.1.15,2013-10-12 08:43:00,
2013-10-12 04:48:00,44.0,40.1,30.18,NE,43,0.0,5.0,86,0.00,,,0.00,Wunderground v.1.15,2013-10-12 08:48:00,
2013-10-12 04:53:00,44.4,40.2,30.18,NNE,19,0.0,5.0,85,0.00,,,0.00,Wunderground v.1.15,2013-10-12 08:53:00,
2013-10-12 04:58:00,44.2,39.7,30.18,NNE,19,0.0,5.0,84,0.00,,,0.00,Wunderground v.1.15,2013-10-12 08:58:00,
2013-10-12 05:03:00,44.5,40.0,30.18,NNE,19,0.0,5.0,84,0.00,,,0.00,Wunderground v.1.15,2013-10-12 09:03:00,
2013-10-12 05:09:00,44.5,39.7,30.19,NNE,19,0.0,5.0,83,0.00,,,0.00,Wunderground v.1.15,2013-10-12 09:09:00,
2013-10-12 05:14:00,44.3,39.8,30.19,NNE,19,0.0,5.0,84,0.00,,,0.00,Wunderground v.1.15,2013-10-12 09:14:00,
2013-10-12 05:19:00,43.8,39.6,30.19,NNE,19,0.0,5.0,85,0.00,,,0.00,Wunderground v.1.15,2013-10-12 09:19:00,
2013-10-12 05:24:00,43.3,39.4,30.19,NNE,19,0.0,5.0,86,0.00,,,0.00,Wunderground v.1.15,2013-10-12 09:24:00,
2013-10-12 05:29:00,43.3,39.1,30.19,NNE,18,0.0,5.0,85,0.00,,,0.00,Wunderground v.1.15,2013-10-12 09:29:00,
2013-10-12 05:35:00,42.7,39.1,30.19,NNE,19,0.0,5.0,87,0.00,,,0.00,Wunderground v.1.15,2013-10-12 09:35:00,
2013-10-12 05:40:00,42.4,38.8,30.19,NNE,19,0.0,5.0,87,0.00,,,0.00,Wunderground v.1.15,2013-10-12 09:40:00,
2013-10-12 05:45:00,43.5,39.6,30.19,NNE,19,0.0,5.0,86,0.00,,,0.00,Wunderground v.1.15,2013-10-12 09:45:00,
2013-10-12 05:50:00,43.7,39.5,30.19,NNE,19,0.0,5.0,85,0.00,,,0.00,Wunderground v.1.15,2013-10-12 09:50:00,
2013-10-12 05:55:00,43.3,39.1,30.19,NNE,19,0.0,5.0,85,0.00,,,0.00,Wunderground v.1.15,2013-10-12 09:55:00,
2013-10-12 06:01:00,43.0,39.1,30.20,NNE,19,0.0,5.0,86,0.00,,,0.00,Wunderground v.1.15,2013-10-12 10:01:00,
2013-10-12 06:06:00,43.5,39.3,30.20,NNE,19,0.0,5.0,85,0.00,,,0.00,Wunderground v.1.15,2013-10-12 10:06:00,
2013-10-12 06:11:00,44.4,39.6,30.20,NNE,16,0.0,5.0,83,0.00,,,0.00,Wunderground v.1.15,2013-10-12 10:11:00,
2013-10-12 06:16:00,44.5,39.3,30.20,NNE,18,1.0,5.0,82,0.00,,,0.00,Wunderground v.1.15,2013-10-12 10:16:00,
2013-10-12 06:21:00,44.3,39.2,30.20,NNE,18,1.0,5.0,82,0.00,,,0.00,Wunderground v.1.15,2013-10-12 10:21:00,
2013-10-12 06:27:00,44.1,39.0,30.20,NNE,18,1.0,5.0,82,0.00,,,0.00,Wunderground v.1.15,2013-10-12 10:27:00,
2013-10-12 06:32:00,43.7,38.9,30.20,NNE,18,1.0,5.0,83,0.00,,,0.00,Wunderground v.1.15,2013-10-12 10:32:00,
2013-10-12 06:37:00,43.2,39.0,30.21,NNE,18,1.0,5.0,85,0.00,,,0.00,Wunderground v.1.15,2013-10-12 10:37:00,
2013-10-12 06:42:00,43.1,38.9,30.21,NNE,18,1.0,5.0,85,0.00,,,0.00,Wunderground v.1.15,2013-10-12 10:42:00,
2013-10-12 06:47:00,43.4,39.2,30.21,NNE,18,1.0,5.0,85,0.00,,,0.00,Wunderground v.1.15,2013-10-12 10:47:00,
2013-10-12 06:53:00,44.0,39.5,30.21,NNE,18,1.0,5.0,84,0.00,,,0.00,Wunderground v.1.15,2013-10-12 10:53:00,
2013-10-12 06:58:00,44.2,39.4,30.21,NNE,18,1.0,5.0,83,0.00,,,0.00,Wunderground v.1.15,2013-10-12 10:58:00,
2013-10-12 07:03:00,44.1,39.3,30.21,NNE,18,0.0,5.0,83,0.00,,,0.00,Wunderground v.1.15,2013-10-12 11:03:00,
2013-10-12 07:08:00,44.2,39.7,30.21,NNE,18,1.0,5.0,84,0.00,,,0.00,Wunderground v.1.15,2013-10-12 11:08:00,
2013-10-12 07:13:00,44.0,39.5,30.22,NNE,18,1.0,5.0,84,0.00,,,0.00,Wunderground v.1.15,2013-10-12 11:13:00,
2013-10-12 07:19:00,43.9,39.4,30.22,NNE,18,1.0,5.0,84,0.00,,,0.00,Wunderground v.1.15,2013-10-12 11:19:00,
2013-10-12 07:24:00,44.0,39.5,30.22,NNE,16,1.0,5.0,84,0.00,,,0.00,Wunderground v.1.15,2013-10-12 11:24:00,
2013-10-12 07:29:00,43.8,39.3,30.22,NNE,18,0.0,5.0,84,0.00,,,0.00,Wunderground v.1.15,2013-10-12 11:29:00,
2013-10-12 07:34:00,43.8,39.3,30.22,NNE,18,0.0,5.0,84,0.00,,,0.00,Wunderground v.1.15,2013-10-12 11:34:00,
2013-10-12 07:39:00,43.6,39.4,30.22,NNE,18,0.0,5.0,85,0.00,,,0.00,Wunderground v.1.15,2013-10-12 11:39:00,
2013-10-12 07:45:00,44.0,39.8,30.22,NNE,18,0.0,5.0,85,0.00,,,0.00,Wunderground v.1.15,2013-10-12 11:45:00,
2013-10-12 07:50:00,44.4,39.9,30.23,NNE,18,0.0,5.0,84,0.00,,,0.00,Wunderground v.1.15,2013-10-12 11:50:00,
2013-10-12 07:55:00,44.6,40.1,30.23,NNE,18,0.0,5.0,84,0.00,,,0.00,Wunderground v.1.15,2013-10-12 11:55:00,
2013-10-12 08:00:00,44.9,40.0,30.23,NNE,18,0.0,2.0,83,0.00,,,0.00,Wunderground v.1.15,2013-10-12 12:00:00,
2013-10-12 08:06:00,45.2,40.3,30.23,NNE,18,0.0,2.0,83,0.00,,,0.00,Wunderground v.1.15,2013-10-12 12:06:00,
2013-10-12 08:11:00,45.3,40.4,30.23,NNE,18,0.0,0.0,83,0.00,,,0.00,Wunderground v.1.15,2013-10-12 12:11:00,
2013-10-12 08:16:00,46.0,41.1,30.23,NNE,18,0.0,0.0,83,0.00,,,0.00,Wunderground v.1.15,2013-10-12 12:16:00,
2013-10-12 08:21:00,47.1,41.6,30.23,ENE,75,0.0,2.0,81,0.00,,,0.00,Wunderground v.1.15,2013-10-12 12:21:00,
2013-10-12 08:26:00,48.2,42.0,30.23,East,93,1.0,2.0,79,0.00,,,0.00,Wunderground v.1.15,2013-10-12 12:26:00,
2013-10-12 08:31:00,49.2,42.3,30.23,ENE,63,1.0,1.0,77,0.00,,,0.00,Wunderground v.1.15,2013-10-12 12:31:00,
2013-10-12 08:37:00,49.5,42.6,30.24,ENE,62,1.0,1.0,77,0.00,,,0.00,Wunderground v.1.15,2013-10-12 12:37:00,
2013-10-12 08:42:00,50.0,43.1,30.24,ESE,109,0.0,1.0,77,0.00,,,0.00,Wunderground v.1.15,2013-10-12 12:42:00,
2013-10-12 08:47:00,50.6,43.3,30.24,East,97,0.0,1.0,76,0.00,,,0.00,Wunderground v.1.15,2013-10-12 12:47:00,
2013-10-12 08:52:00,51.7,44.0,30.24,ENE,78,1.0,1.0,75,0.00,,,0.00,Wunderground v.1.15,2013-10-12 12:52:00,
2013-10-12 08:57:00,52.4,44.0,30.24,SSW,207,1.0,2.0,73,0.00,,,0.00,Wunderground v.1.15,2013-10-12 12:57:00,
2013-10-12 09:03:00,52.9,44.5,30.24,SSW,198,2.0,3.0,73,0.00,,,0.00,Wunderground v.1.15,2013-10-12 13:03:00,
2013-10-12 09:08:00,53.3,44.9,30.24,East,95,1.0,3.0,73,0.00,,,0.00,Wunderground v.1.15,2013-10-12 13:08:00,
2013-10-12 09:13:00,53.8,45.0,30.24,East,89,1.0,4.0,72,0.00,,,0.00,Wunderground v.1.15,2013-10-12 13:13:00,
2013-10-12 09:18:00,54.0,45.5,30.24,SE,139,1.0,4.0,73,0.00,,,0.00,Wunderground v.1.15,2013-10-12 13:18:00,
2013-10-12 09:23:00,54.3,45.1,30.24,ENE,72,2.0,4.0,71,0.00,,,0.00,Wunderground v.1.15,2013-10-12 13:23:00,
2013-10-12 09:29:00,54.7,45.5,30.24,ENE,69,3.0,4.0,71,0.00,,,0.00,Wunderground v.1.15,2013-10-12 13:29:00,
2013-10-12 09:34:00,55.1,45.9,30.24,East,87,2.0,3.0,71,0.00,,,0.00,Wunderground v.1.15,2013-10-12 13:34:00,
2013-10-12 09:39:00,55.5,46.6,30.24,ESE,113,2.0,3.0,72,0.00,,,0.00,Wunderground v.1.15,2013-10-12 13:39:00,
2013-10-12 09:44:00,55.9,46.6,30.24,East,89,1.0,3.0,71,0.00,,,0.00,Wunderground v.1.15,2013-10-12 13:44:00,
2013-10-12 09:49:00,56.3,47.4,30.24,ENE,68,2.0,4.0,72,0.00,,,0.00,Wunderground v.1.15,2013-10-12 13:49:00,
2013-10-12 09:55:00,56.8,47.9,30.24,ENE,62,2.0,3.0,72,0.00,,,0.00,Wunderground v.1.15,2013-10-12 13:55:00,
2013-10-12 10:00:00,57.3,48.0,30.24,WSW,238,2.0,2.0,71,0.00,,,0.00,Wunderground v.1.15,2013-10-12 14:00:00,
2013-10-12 10:05:00,57.8,48.5,30.25,ENE,70,3.0,5.0,71,0.00,,,0.00,Wunderground v.1.15,2013-10-12 14:05:00,
2013-10-12 10:10:00,58.1,48.4,30.25,ENE,75,3.0,7.0,70,0.00,,,0.00,Wunderground v.1.15,2013-10-12 14:10:00,
2013-10-12 10:15:00,58.6,48.8,30.25,NE,45,4.0,7.0,70,0.00,,,0.00,Wunderground v.1.15,2013-10-12 14:15:00,
2013-10-12 10:21:00,59.3,49.1,30.24,SSW,198,2.0,3.0,69,0.00,,,0.00,Wunderground v.1.15,2013-10-12 14:21:00,
2013-10-12 10:26:00,59.9,50.1,30.24,South,186,2.0,3.0,70,0.00,,,0.00,Wunderground v.1.15,2013-10-12 14:26:00,
2013-10-12 10:31:00,60.5,50.3,30.24,East,101,1.0,3.0,69,0.00,,,0.00,Wunderground v.1.15,2013-10-12 14:31:00,
2013-10-12 10:36:00,60.8,51.0,30.24,ESE,122,2.0,4.0,70,0.00,,,0.00,Wunderground v.1.15,2013-10-12 14:36:00,
2013-10-12 10:41:00,61.2,51.3,30.24,SW,226,2.0,3.0,70,0.00,,,0.00,Wunderground v.1.15,2013-10-12 14:41:00,
2013-10-12 10:47:00,61.5,50.8,30.24,South,181,2.0,3.0,68,0.00,,,0.00,Wunderground v.1.15,2013-10-12 14:47:00,
2013-10-12 10:52:00,61.9,51.2,30.25,ENE,68,2.0,3.0,68,0.00,,,0.00,Wunderground v.1.15,2013-10-12 14:52:00,
2013-10-12 10:57:00,62.2,51.1,30.25,ENE,74,2.0,3.0,67,0.00,,,0.00,Wunderground v.1.15,2013-10-12 14:57:00,
2013-10-12 11:02:00,62.7,51.2,30.25,ENE,67,2.0,4.0,66,0.00,,,0.00,Wunderground v.1.15,2013-10-12 15:02:00,
2013-10-12 11:07:00,62.7,51.2,30.25,SSE,153,2.0,4.0,66,0.00,,,0.00,Wunderground v.1.15,2013-10-12 15:07:00,
2013-10-12 11:13:00,63.3,51.3,30.25,NE,49,2.0,4.0,65,0.00,,,0.00,Wunderground v.1.15,2013-10-12 15:13:00,
2013-10-12 11:18:00,63.3,51.7,30.25,SSE,150,2.0,4.0,66,0.00,,,0.00,Wunderground v.1.15,2013-10-12 15:18:00,
2013-10-12 11:23:00,63.3,51.3,30.25,NNE,23,3.0,3.0,65,0.00,,,0.00,Wunderground v.1.15,2013-10-12 15:23:00,
2013-10-12 11:28:00,63.5,51.1,30.25,West,262,2.0,4.0,64,0.00,,,0.00,Wunderground v.1.15,2013-10-12 15:28:00,
2013-10-12 11:33:00,63.6,51.6,30.25,South,173,2.0,4.0,65,0.00,,,0.00,Wunderground v.1.15,2013-10-12 15:33:00,
2013-10-12 11:39:00,63.9,51.5,30.25,NE,48,2.0,4.0,64,0.00,,,0.00,Wunderground v.1.15,2013-10-12 15:39:00,
2013-10-12 11:44:00,64.2,51.3,30.25,ENE,58,2.0,7.0,63,0.00,,,0.00,Wunderground v.1.15,2013-10-12 15:44:00,
2013-10-12 11:49:00,64.5,52.0,30.24,East,82,2.0,7.0,64,0.00,,,0.00,Wunderground v.1.15,2013-10-12 15:49:00,
2013-10-12 11:54:00,65.3,51.9,30.25,SSE,165,2.0,3.0,62,0.00,,,0.00,Wunderground v.1.15,2013-10-12 15:54:00,
2013-10-12 11:59:00,65.5,52.1,30.25,WSW,255,2.0,3.0,62,0.00,,,0.00,Wunderground v.1.15,2013-10-12 15:59:00,
2013-10-12 12:04:00,65.8,52.4,30.25,ESE,107,2.0,3.0,62,0.00,,,0.00,Wunderground v.1.15,2013-10-12 16:04:00,
2013-10-12 12:10:00,65.8,52.9,30.24,ENE,74,2.0,4.0,63,0.00,,,0.00,Wunderground v.1.15,2013-10-12 16:10:00,
2013-10-12 12:15:00,66.0,52.2,30.24,SSW,210,3.0,4.0,61,0.00,,,0.00,Wunderground v.1.15,2013-10-12 16:15:00,
2013-10-12 12:20:00,66.2,52.3,30.24,ENE,70,3.0,4.0,61,0.00,,,0.00,Wunderground v.1.15,2013-10-12 16:20:00,
2013-10-12 12:25:00,66.5,53.1,30.24,ENE,68,3.0,4.0,62,0.00,,,0.00,Wunderground v.1.15,2013-10-12 16:25:00,
2013-10-12 12:31:00,66.7,52.8,30.24,East,101,3.0,3.0,61,0.00,,,0.00,Wunderground v.1.15,2013-10-12 16:31:00,
2013-10-12 12:36:00,67.0,52.7,30.24,ENE,75,3.0,3.0,60,0.00,,,0.00,Wunderground v.1.15,2013-10-12 16:36:00,
2013-10-12 12:41:00,67.0,52.7,30.24,ESE,110,3.0,3.0,60,0.00,,,0.00,Wunderground v.1.15,2013-10-12 16:41:00,
2013-10-12 12:46:00,67.3,52.0,30.24,East,89,3.0,7.0,58,0.00,,,0.00,Wunderground v.1.15,2013-10-12 16:46:00,
2013-10-12 12:51:00,67.6,52.3,30.23,ESE,120,3.0,4.0,58,0.00,,,0.00,Wunderground v.1.15,2013-10-12 16:51:00,
2013-10-12 12:57:00,68.2,51.4,30.23,SE,145,3.0,5.0,55,0.00,,,0.00,Wunderground v.1.15,2013-10-12 16:57:00,
2013-10-12 13:02:00,68.3,52.5,30.23,East,99,3.0,3.0,57,0.00,,,0.00,Wunderground v.1.15,2013-10-12 17:02:00,
2013-10-12 13:07:00,68.4,52.1,30.22,East,94,3.0,4.0,56,0.00,,,0.00,Wunderground v.1.15,2013-10-12 17:07:00,
2013-10-12 13:12:00,68.9,51.1,30.22,East,82,3.0,5.0,53,0.00,,,0.00,Wunderground v.1.15,2013-10-12 17:12:00,
2013-10-12 13:17:00,68.7,50.9,30.22,ENE,64,3.0,7.0,53,0.00,,,0.00,Wunderground v.1.15,2013-10-12 17:17:00,
2013-10-12 13:23:00,68.7,51.4,30.22,SSW,203,3.0,4.0,54,0.00,,,0.00,Wunderground v.1.15,2013-10-12 17:23:00,
2013-10-12 13:28:00,69.0,52.2,30.22,SSE,150,3.0,9.0,55,0.00,,,0.00,Wunderground v.1.15,2013-10-12 17:28:00,
2013-10-12 13:33:00,69.0,51.2,30.22,ENE,57,3.0,4.0,53,0.00,,,0.00,Wunderground v.1.15,2013-10-12 17:33:00,
2013-10-12 13:38:00,68.9,52.1,30.22,SE,128,3.0,4.0,55,0.00,,,0.00,Wunderground v.1.15,2013-10-12 17:38:00,
2013-10-12 13:43:00,68.5,51.7,30.22,East,97,3.0,9.0,55,0.00,,,0.00,Wunderground v.1.15,2013-10-12 17:43:00,
2013-10-12 13:49:00,68.6,52.8,30.22,East,100,3.0,9.0,57,0.00,,,0.00,Wunderground v.1.15,2013-10-12 17:49:00,
2013-10-12 13:54:00,68.7,51.9,30.22,ENE,60,3.0,5.0,55,0.00,,,0.00,Wunderground v.1.15,2013-10-12 17:54:00,
2013-10-12 13:59:00,68.4,52.1,30.22,NE,56,4.0,8.0,56,0.00,,,0.00,Wunderground v.1.15,2013-10-12 17:59:00,
2013-10-12 14:04:00,68.5,51.7,30.22,East,94,4.0,7.0,55,0.00,,,0.00,Wunderground v.1.15,2013-10-12 18:04:00,
2013-10-12 14:09:00,68.6,52.8,30.22,SE,146,3.0,7.0,57,0.00,,,0.00,Wunderground v.1.15,2013-10-12 18:09:00,
2013-10-12 14:15:00,68.8,52.9,30.22,ENE,67,3.0,6.0,57,0.00,,,0.00,Wunderground v.1.15,2013-10-12 18:15:00,
2013-10-12 14:20:00,68.5,51.7,30.22,East,79,3.0,7.0,55,0.00,,,0.00,Wunderground v.1.15,2013-10-12 18:20:00,
2013-10-12 14:25:00,68.2,51.9,30.22,ENE,75,4.0,7.0,56,0.00,,,0.00,Wunderground v.1.15,2013-10-12 18:25:00,
2013-10-12 14:30:00,68.4,51.6,30.22,NE,54,4.0,4.0,55,0.00,,,0.00,Wunderground v.1.15,2013-10-12 18:30:00,
2013-10-12 14:35:00,68.6,52.3,30.22,East,93,3.0,4.0,56,0.00,,,0.00,Wunderground v.1.15,2013-10-12 18:35:00,
2013-10-12 14:41:00,68.4,51.6,30.22,ENE,67,3.0,4.0,55,0.00,,,0.00,Wunderground v.1.15,2013-10-12 18:41:00,
2013-10-12 14:46:00,68.5,52.2,30.22,East,83,3.0,4.0,56,0.00,,,0.00,Wunderground v.1.15,2013-10-12 18:46:00,
2013-10-12 14:51:00,68.6,51.8,30.22,ENE,63,3.0,5.0,55,0.00,,,0.00,Wunderground v.1.15,2013-10-12 18:51:00,
2013-10-12 14:56:00,68.4,52.1,30.22,ENE,69,3.0,6.0,56,0.00,,,0.00,Wunderground v.1.15,2013-10-12 18:56:00,
2013-10-12 15:01:00,68.1,51.8,30.22,East,85,4.0,4.0,56,0.00,,,0.00,Wunderground v.1.15,2013-10-12 19:01:00,
2013-10-12 15:06:00,68.3,52.5,30.22,SE,135,3.0,4.0,57,0.00,,,0.00,Wunderground v.1.15,2013-10-12 19:06:00,
2013-10-12 15:11:00,68.6,51.3,30.22,ENE,75,3.0,7.0,54,0.00,,,0.00,Wunderground v.1.15,2013-10-12 19:11:00,
2013-10-12 15:17:00,68.1,51.8,30.22,East,101,4.0,7.0,56,0.00,,,0.00,Wunderground v.1.15,2013-10-12 19:17:00,
2013-10-12 15:22:00,68.1,52.3,30.22,SSE,160,3.0,5.0,57,0.00,,,0.00,Wunderground v.1.15,2013-10-12 19:22:00,
2013-10-12 15:27:00,68.2,51.4,30.22,ENE,70,3.0,5.0,55,0.00,,,0.00,Wunderground v.1.15,2013-10-12 19:27:00,
2013-10-12 15:32:00,68.1,51.8,30.22,ENE,73,3.0,6.0,56,0.00,,,0.00,Wunderground v.1.15,2013-10-12 19:32:00,
2013-10-12 15:38:00,67.9,52.1,30.22,ENE,60,4.0,6.0,57,0.00,,,0.00,Wunderground v.1.15,2013-10-12 19:38:00,
2013-10-12 15:43:00,67.7,51.4,30.22,NE,51,4.0,5.0,56,0.00,,,0.00,Wunderground v.1.15,2013-10-12 19:43:00,
2013-10-12 15:48:00,67.6,51.3,30.22,SE,138,4.0,5.0,56,0.00,,,0.00,Wunderground v.1.15,2013-10-12 19:48:00,
2013-10-12 15:53:00,67.6,51.8,30.22,ESE,103,4.0,7.0,57,0.00,,,0.00,Wunderground v.1.15,2013-10-12 19:53:00,
2013-10-12 15:58:00,67.7,52.4,30.22,ESE,111,3.0,7.0,58,0.00,,,0.00,Wunderground v.1.15,2013-10-12 19:58:00,
2013-10-12 16:03:00,67.6,51.8,30.22,ENE,65,3.0,7.0,57,0.00,,,0.00,Wunderground v.1.15,2013-10-12 20:03:00,
2013-10-12 16:08:00,67.5,52.2,30.22,ESE,110,3.0,7.0,58,0.00,,,0.00,Wunderground v.1.15,2013-10-12 20:08:00,
2013-10-12 16:13:00,67.3,52.0,30.22,East,98,3.0,4.0,58,0.00,,,0.00,Wunderground v.1.15,2013-10-12 20:13:00,
2013-10-12 16:18:00,67.1,52.3,30.22,ENE,72,3.0,5.0,59,0.00,,,0.00,Wunderground v.1.15,2013-10-12 20:18:00,
2013-10-12 16:23:00,66.9,51.6,30.22,ENE,63,3.0,7.0,58,0.00,,,0.00,Wunderground v.1.15,2013-10-12 20:23:00,
2013-10-12 16:29:00,66.5,51.7,30.22,East,101,4.0,7.0,59,0.00,,,0.00,Wunderground v.1.15,2013-10-12 20:29:00,
2013-10-12 16:34:00,66.3,52.0,30.22,ENE,73,4.0,5.0,60,0.00,,,0.00,Wunderground v.1.15,2013-10-12 20:34:00,
2013-10-12 16:39:00,66.3,52.4,30.22,ENE,70,3.0,5.0,61,0.00,,,0.00,Wunderground v.1.15,2013-10-12 20:39:00,
2013-10-12 16:44:00,66.2,52.8,30.23,ENE,63,3.0,6.0,62,0.00,,,0.00,Wunderground v.1.15,2013-10-12 20:44:00,
2013-10-12 16:49:00,66.1,52.3,30.22,ESE,117,3.0,6.0,61,0.00,,,0.00,Wunderground v.1.15,2013-10-12 20:49:00,
2013-10-12 16:55:00,66.0,52.6,30.23,SSE,168,3.0,6.0,62,0.00,,,0.00,Wunderground v.1.15,2013-10-12 20:55:00,
2013-10-12 17:00:00,65.8,52.9,30.23,ENE,58,2.0,3.0,63,0.00,,,0.00,Wunderground v.1.15,2013-10-12 21:00:00,
2013-10-12 17:06:00,65.1,53.5,30.23,ENE,76,3.0,5.0,66,0.00,,,0.00,Wunderground v.1.15,2013-10-12 21:06:00,
2013-10-12 17:11:00,64.5,52.9,30.23,SE,134,3.0,3.0,66,0.00,,,0.00,Wunderground v.1.15,2013-10-12 21:11:00,
2013-10-12 17:17:00,64.0,53.2,30.23,ENE,75,3.0,4.0,68,0.00,,,0.00,Wunderground v.1.15,2013-10-12 21:17:00,
2013-10-12 17:22:00,63.5,53.1,30.23,ENE,69,3.0,4.0,69,0.00,,,0.00,Wunderground v.1.15,2013-10-12 21:22:00,
2013-10-12 17:27:00,62.7,52.8,30.23,ENE,76,3.0,5.0,70,0.00,,,0.00,Wunderground v.1.15,2013-10-12 21:27:00,
2013-10-12 17:32:00,62.1,52.6,30.23,ENE,73,3.0,5.0,71,0.00,,,0.00,Wunderground v.1.15,2013-10-12 21:32:00,
2013-10-12 17:37:00,61.5,52.4,30.24,ENE,66,3.0,7.0,72,0.00,,,0.00,Wunderground v.1.15,2013-10-12 21:37:00,
2013-10-12 17:43:00,60.9,52.6,30.24,SE,125,4.0,6.0,74,0.00,,,0.00,Wunderground v.1.15,2013-10-12 21:43:00,
2013-10-12 17:48:00,60.3,52.3,30.24,ENE,77,3.0,7.0,75,0.00,,,0.00,Wunderground v.1.15,2013-10-12 21:48:00,
2013-10-12 17:53:00,59.7,52.1,30.24,NE,46,3.0,4.0,76,0.00,,,0.00,Wunderground v.1.15,2013-10-12 21:53:00,
2013-10-12 17:58:00,59.1,51.9,30.24,East,96,3.0,5.0,77,0.00,,,0.00,Wunderground v.1.15,2013-10-12 21:58:00,
2013-10-12 18:03:00,58.6,51.8,30.24,East,91,4.0,8.0,78,0.00,,,0.00,Wunderground v.1.15,2013-10-12 22:03:00,
2013-10-12 18:08:00,58.1,51.6,30.25,ENE,58,4.0,8.0,79,0.00,,,0.00,Wunderground v.1.15,2013-10-12 22:08:00,
2013-10-12 18:13:00,57.7,51.2,30.25,East,95,3.0,5.0,79,0.00,,,0.00,Wunderground v.1.15,2013-10-12 22:13:00,
2013-10-12 18:18:00,57.4,51.3,30.24,ESE,116,3.0,5.0,80,0.00,,,0.00,Wunderground v.1.15,2013-10-12 22:18:00,
2013-10-12 18:23:00,57.0,51.2,30.25,East,84,3.0,5.0,81,0.00,,,0.00,Wunderground v.1.15,2013-10-12 22:23:00,
2013-10-12 18:28:00,56.8,51.4,30.25,South,184,2.0,5.0,82,0.00,,,0.00,Wunderground v.1.15,2013-10-12 22:28:00,
2013-10-12 18:33:00,56.4,51.0,30.25,SW,219,2.0,3.0,82,0.00,,,0.00,Wunderground v.1.15,2013-10-12 22:33:00,
2013-10-12 18:39:00,55.9,50.8,30.25,ESE,118,1.0,3.0,83,0.00,,,0.00,Wunderground v.1.15,2013-10-12 22:39:00,
2013-10-12 18:44:00,55.6,50.8,30.25,ENE,71,1.0,3.0,84,0.00,,,0.00,Wunderground v.1.15,2013-10-12 22:44:00,
2013-10-12 18:49:00,55.3,50.5,30.26,ENE,65,1.0,3.0,84,0.00,,,0.00,Wunderground v.1.15,2013-10-12 22:49:00,
2013-10-12 18:54:00,55.1,50.7,30.26,ESE,115,1.0,4.0,85,0.00,,,0.00,Wunderground v.1.15,2013-10-12 22:54:00,
2013-10-12 18:59:00,55.0,50.6,30.26,East,91,2.0,4.0,85,0.00,,,0.00,Wunderground v.1.15,2013-10-12 22:59:00,
2013-10-12 19:05:00,54.8,50.7,30.26,NE,55,2.0,4.0,86,0.00,,,0.00,Wunderground v.1.15,2013-10-12 23:05:00,
2013-10-12 19:10:00,54.7,50.6,30.26,SSE,156,2.0,3.0,86,0.00,,,0.00,Wunderground v.1.15,2013-10-12 23:10:00,
2013-10-12 19:15:00,54.6,50.5,30.26,East,82,3.0,4.0,86,0.00,,,0.00,Wunderground v.1.15,2013-10-12 23:15:00,
2013-10-12 19:20:00,54.4,50.3,30.27,ENE,65,3.0,4.0,86,0.00,,,0.00,Wunderground v.1.15,2013-10-12 23:20:00,
2013-10-12 19:25:00,54.2,50.1,30.27,East,94,3.0,4.0,86,0.00,,,0.00,Wunderground v.1.15,2013-10-12 23:25:00,
2013-10-12 19:31:00,54.1,50.3,30.27,ENE,75,2.0,3.0,87,0.00,,,0.00,Wunderground v.1.15,2013-10-12 23:31:00,
2013-10-12 19:36:00,53.9,50.4,30.27,ENE,78,2.0,4.0,88,0.00,,,0.00,Wunderground v.1.15,2013-10-12 23:36:00,
2013-10-12 19:41:00,53.9,50.4,30.27,ENE,73,2.0,3.0,88,0.00,,,0.00,Wunderground v.1.15,2013-10-12 23:41:00,
2013-10-12 19:46:00,53.8,50.3,30.28,East,95,2.0,3.0,88,0.00,,,0.00,Wunderground v.1.15,2013-10-12 23:46:00,
2013-10-12 19:51:00,53.7,50.2,30.28,NE,54,1.0,3.0,88,0.00,,,0.00,Wunderground v.1.15,2013-10-12 23:51:00,
2013-10-12 19:57:00,53.8,50.6,30.27,ENE,73,1.0,3.0,89,0.00,,,0.00,Wunderground v.1.15,2013-10-12 23:57:00,
2013-10-12 20:02:00,54.0,50.5,30.28,ENE,72,2.0,3.0,88,0.00,,,0.00,Wunderground v.1.15,2013-10-13 00:02:00,
2013-10-12 20:07:00,54.1,50.6,30.27,ENE,70,2.0,3.0,88,0.00,,,0.00,Wunderground v.1.15,2013-10-13 00:07:00,
2013-10-12 20:12:00,54.1,50.6,30.28,ENE,71,2.0,3.0,88,0.00,,,0.00,Wunderground v.1.15,2013-10-13 00:12:00,
2013-10-12 20:17:00,54.2,50.7,30.28,East,95,2.0,5.0,88,0.00,,,0.00,Wunderground v.1.15,2013-10-13 00:17:00,
2013-10-12 20:23:00,54.1,50.6,30.28,East,82,1.0,3.0,88,0.00,,,0.00,Wunderground v.1.15,2013-10-13 00:23:00,
2013-10-12 20:28:00,54.1,50.9,30.28,ENE,74,1.0,3.0,89,0.00,,,0.00,Wunderground v.1.15,2013-10-13 00:28:00,
2013-10-12 20:33:00,54.2,51.0,30.28,East,84,2.0,3.0,89,0.00,,,0.00,Wunderground v.1.15,2013-10-13 00:33:00,
2013-10-12 20:38:00,54.3,50.8,30.28,East,93,2.0,4.0,88,0.00,,,0.00,Wunderground v.1.15,2013-10-13 00:38:00,
2013-10-12 20:43:00,54.4,50.9,30.28,NE,52,1.0,5.0,88,0.00,,,0.00,Wunderground v.1.15,2013-10-13 00:43:00,
2013-10-12 20:49:00,54.5,51.0,30.28,ENE,75,2.0,5.0,88,0.00,,,0.00,Wunderground v.1.15,2013-10-13 00:49:00,
2013-10-12 20:54:00,54.4,50.9,30.29,ENE,66,2.0,5.0,88,0.00,,,0.00,Wunderground v.1.15,2013-10-13 00:54:00,
2013-10-12 20:59:00,54.3,50.8,30.29,SE,145,3.0,5.0,88,0.00,,,0.00,Wunderground v.1.15,2013-10-13 00:59:00,
2013-10-12 21:04:00,54.1,50.6,30.29,SSE,150,2.0,3.0,88,0.00,,,0.00,Wunderground v.1.15,2013-10-13 01:04:00,
2013-10-12 21:09:00,54.0,50.5,30.29,ENE,68,2.0,3.0,88,0.00,,,0.00,Wunderground v.1.15,2013-10-13 01:09:00,
2013-10-12 21:15:00,54.0,50.5,30.29,NE,52,2.0,6.0,88,0.00,,,0.00,Wunderground v.1.15,2013-10-13 01:15:00,
2013-10-12 21:20:00,53.9,50.4,30.29,East,94,2.0,3.0,88,0.00,,,0.00,Wunderground v.1.15,2013-10-13 01:20:00,
2013-10-12 21:25:00,53.9,50.4,30.29,NE,56,2.0,4.0,88,0.00,,,0.00,Wunderground v.1.15,2013-10-13 01:25:00,
2013-10-12 21:30:00,53.7,50.2,30.30,ENE,60,2.0,3.0,88,0.00,,,0.00,Wunderground v.1.15,2013-10-13 01:30:00,
2013-10-12 21:35:00,53.6,50.1,30.29,ENE,73,2.0,3.0,88,0.00,,,0.00,Wunderground v.1.15,2013-10-13 01:35:00,
2013-10-12 21:41:00,53.4,49.9,30.29,East,96,2.0,3.0,88,0.00,,,0.00,Wunderground v.1.15,2013-10-13 01:41:00,
2013-10-12 21:46:00,53.2,49.7,30.29,East,82,1.0,3.0,88,0.00,,,0.00,Wunderground v.1.15,2013-10-13 01:46:00,
2013-10-12 21:51:00,53.1,49.9,30.30,East,81,2.0,3.0,89,0.00,,,0.00,Wunderground v.1.15,2013-10-13 01:51:00,
2013-10-12 21:56:00,52.9,49.7,30.30,ESE,106,2.0,3.0,89,0.00,,,0.00,Wunderground v.1.15,2013-10-13 01:56:00,
2013-10-12 22:01:00,52.6,49.4,30.30,ENE,77,1.0,3.0,89,0.00,,,0.00,Wunderground v.1.15,2013-10-13 02:01:00,
2013-10-12 22:07:00,52.2,49.4,30.29,ENE,72,1.0,3.0,90,0.00,,,0.00,Wunderground v.1.15,2013-10-13 02:07:00,
2013-10-12 22:12:00,52.1,49.3,30.29,East,97,1.0,3.0,90,0.00,,,0.00,Wunderground v.1.15,2013-10-13 02:12:00,
2013-10-12 22:17:00,52.1,49.6,30.30,ESE,103,1.0,3.0,91,0.00,,,0.00,Wunderground v.1.15,2013-10-13 02:17:00,
2013-10-12 22:22:00,52.1,49.3,30.30,ENE,73,1.0,3.0,90,0.00,,,0.00,Wunderground v.1.15,2013-10-13 02:22:00,
2013-10-12 22:27:00,52.1,49.3,30.30,East,101,2.0,3.0,90,0.00,,,0.00,Wunderground v.1.15,2013-10-13 02:27:00,
2013-10-12 22:32:00,52.1,49.3,30.29,East,82,2.0,3.0,90,0.00,,,0.00,Wunderground v.1.15,2013-10-13 02:32:00,
2013-10-12 22:37:00,52.0,49.2,30.29,ENE,73,2.0,3.0,90,0.00,,,0.00,Wunderground v.1.15,2013-10-13 02:37:00,
2013-10-12 22:42:00,52.1,49.3,30.29,ENE,75,2.0,2.0,90,0.00,,,0.00,Wunderground v.1.15,2013-10-13 02:42:00,
2013-10-12 22:47:00,52.0,49.2,30.29,ENE,67,2.0,3.0,90,0.00,,,0.00,Wunderground v.1.15,2013-10-13 02:47:00,
2013-10-12 22:52:00,52.0,49.2,30.30,ENE,68,2.0,2.0,90,0.00,,,0.00,Wunderground v.1.15,2013-10-13 02:52:00,
2013-10-12 22:57:00,51.8,49.0,30.30,East,90,2.0,2.0,90,0.00,,,0.00,Wunderground v.1.15,2013-10-13 02:57:00,
2013-10-12 23:02:00,51.7,48.9,30.30,ENE,70,2.0,8.0,90,0.00,,,0.00,Wunderground v.1.15,2013-10-13 03:02:00,
2013-10-12 23:08:00,51.6,48.8,30.30,East,87,2.0,8.0,90,0.00,,,0.00,Wunderground v.1.15,2013-10-13 03:08:00,
2013-10-12 23:13:00,51.6,48.8,30.30,East,90,3.0,8.0,90,0.00,,,0.00,Wunderground v.1.15,2013-10-13 03:13:00,
2013-10-12 23:18:00,51.5,48.7,30.30,ENE,78,3.0,8.0,90,0.00,,,0.00,Wunderground v.1.15,2013-10-13 03:18:00,
2013-10-12 23:23:00,51.6,48.8,30.30,ESE,115,3.0,8.0,90,0.00,,,0.00,Wunderground v.1.15,2013-10-13 03:23:00,
2013-10-12 23:28:00,51.4,48.6,30.31,ENE,66,2.0,8.0,90,0.00,,,0.00,Wunderground v.1.15,2013-10-13 03:28:00,
2013-10-12 23:34:00,51.2,48.4,30.31,ESE,103,2.0,8.0,90,0.00,,,0.00,Wunderground v.1.15,2013-10-13 03:34:00,
2013-10-12 23:39:00,51.0,48.5,30.31,South,177,3.0,8.0,91,0.00,,,0.00,Wunderground v.1.15,2013-10-13 03:39:00,
2013-10-12 23:44:00,50.9,48.4,30.31,East,96,2.0,8.0,91,0.00,,,0.00,Wunderground v.1.15,2013-10-13 03:44:00,
2013-10-12 23:49:00,50.8,48.3,30.31,East,82,2.0,8.0,91,0.00,,,0.00,Wunderground v.1.15,2013-10-13 03:49:00,
2013-10-12 23:54:00,50.7,48.2,30.31,ENE,71,2.0,8.0,91,0.00,,,0.00,Wunderground v.1.15,2013-10-13 03:54:00,